Regional Weather Roundup
Issued by NWS Little Rock, AR

Home | Current Version | Previous Version | Graphics & Text | Print | Product List | Glossary On
Versions: 1 2 3 4 5 6 7 8 9 10 11 12 13 14 15 16 17 18 19 20 21 22 23 24 25 26 27 28 29 30 31 32 33 34 35 36 37 38 39 40 41 42 43 44 45 46 47 48 49 50
000
ASUS44 KLZK 010505
RWRLZK

WEATHER ROUNDUP FOR ARKANSAS
NATIONAL WEATHER SERVICE LITTLE ROCK AR
1100 PM CST SAT JAN 31 2015

NOTE: "FAIR" INDICATES FEW OR NO CLOUDS BELOW 12,000 FEET WITH NO
SIGNIFICANT WEATHER AND/OR OBSTRUCTIONS TO VISIBILITY.

ARZ001-003-010-029-010600-
NORTHWEST ARKANSAS

CITY           SKY/WX    TMP DP  RH WIND       PRES   REMARKS
FAYETTEVILLE   LGT RAIN  42  33  70 S16G26    29.90F
FORT SMITH     LGT RAIN  42  36  79 E9        29.96F
HARRISON       CLOUDY    41  28  60 SE21      29.93F
BENTONVILLE    CLOUDY    41  34  75 S8        29.91F
ROGERS         LGT RAIN  39  35  86 SE9       29.90F
SILOAM SPGS    CLOUDY    39  30  70 S9        29.91F
HIGHFILL       LGT RAIN  41  36  82 S10       29.90F
$$

ARZ004-005-016-010600-
NORTH CENTRAL ARKANSAS

CITY           SKY/WX    TMP DP  RH WIND       PRES   REMARKS
BATESVILLE     CLOUDY    39  27  60 CALM      30.06F
FLIPPIN        CLOUDY    43  23  45 S8        30.00F
MTN HOME       CLOUDY    40  26  57 SE7       29.99F
$$

ARZ040-041-010600-
WEST CENTRAL ARKANSAS

CITY           SKY/WX    TMP DP  RH WIND       PRES   REMARKS
MENA           CLOUDY    52  34  50 SE5       29.96F
MOUNT IDA      CLOUDY    48  31  51 SE3       29.97F
$$

ARZ009-017-025-026-028-010600-
NORTHEAST ARKANSAS

CITY           SKY/WX    TMP DP  RH WIND       PRES   REMARKS
CORNING        FAIR      39  32  75 E5        30.08F
JONESBORO      CLOUDY    39  31  72 E5        30.08F
NEWPORT        CLOUDY    38  34  85 CALM      30.08F
WALNUT RIDGE   CLOUDY    39  28  65 E6        30.07F
BLYTHEVILLE    CLOUDY    45  25  45 SE8       30.09F
$$

ARZ022-023-033-042-044-010600-
CENTRAL ARKANSAS

CITY           SKY/WX    TMP DP  RH WIND       PRES   REMARKS
LITTLE ROCK    CLOUDY    44  32  62 E3        30.05F
N LITTLE ROCK  CLOUDY    42  34  72 SE5       30.05F
JACKSONVILLE   CLOUDY    40  32  74 CALM      30.05F
SEARCY         CLOUDY    38  30  73 CALM      30.08F
HOT SPRINGS    CLOUDY    46  31  55 E7        30.02F
RUSSELLVILLE   CLOUDY    43  29  57 E7        30.01F
CLINTON        MOCLDY    37  32  81 CALM      30.06F
$$

ARZ036-010600-
EAST ARKANSAS

CITY           SKY/WX    TMP DP  RH WIND       PRES   REMARKS
WEST MEMPHIS   CLOUDY    48  28  46 S16       30.07F
$$

ARZ050-053-066-070-073-010600-
SOUTHWEST ARKANSAS

CITY           SKY/WX    TMP DP  RH WIND       PRES   REMARKS
ARKADELPHIA    CLOUDY    46  35  65 NE5       30.03F
CAMDEN         CLOUDY    48  32  53 MISG      30.05F
TEXARKANA      CLOUDY    51  37  58 SE9       29.99F
EL DORADO      CLOUDY    50  33  52 SE7       30.04F
DE QUEEN       CLOUDY    50  34  54 SE9       29.96F
$$

ARZ056-057-069-010600-
SOUTHEAST ARKANSAS

CITY           SKY/WX    TMP DP  RH WIND       PRES   REMARKS
PINE BLUFF     CLOUDY    44  35  70 SE7       30.05F
STUTTGART      CLOUDY    45  30  57 SE6       30.05F
MONTICELLO     CLOUDY    48  33  56 S7        30.06F

$$




USA.gov is the U.S. government's official web portal to all federal, state and local government web resources and services.